User: anonymous   Login
Location: Unspecified
(0.0000°N, 0.0000°E)
Time: 19:05:58
(UTC+00:00)
Language:

STARLINK-5701 - Orbit

View from above orbital plane
View from above orbital plane
View from above satellite
View from above satellite

Ground track
Ground track

The orbit is defined by the following mean orbital elements,

1 55487U          26145.05269683 +.00000000 +00000-0 +10932-4 0 00008
2 55487  43.0032 268.5071 0001007 281.1492  78.9246 15.27575713    06
Epoch (UTC): 25 May 2026 01:15:53
Eccentricity: 0.0001007
inclination: 43.0032°
perigee height: 482 km
apogee height: 484 km
right ascension of ascending node: 268.5071°
argument of perigee: 281.1492°
revolutions per day: 15.27575713
mean anomaly at epoch: 78.9246°

The dashed part of the orbit path shows where the satellite is in the earth's shadow,  

DLR